This is the latest recevied weather packets stored in our database for station/object KB4KY. If no packets are shown the sender has not sent any weather packets the latest 1 day(s).
| Time | Temp. | Humidity | Pressure | Rain* | Wind** | Luminosity | Snow |
|---|---|---|---|---|---|---|---|
| 1778012856 | 20° C | 68% | 1007.4 hPa | 0 mm | 1.34 m/s, 255° | - | - |
| 1778012558 | 20° C | 66% | 1007.3 hPa | 0 mm | 0.89 m/s, 236° | - | - |
| 1778012261 | 20° C | 70% | 1007.3 hPa | 0 mm | 0.45 m/s, 262° | - | - |
| 1778011955 | 20° C | 70% | 1007.4 hPa | 0 mm | 0 m/s | - | - |
| 1778011655 | 20° C | 71% | 1007.5 hPa | 0 mm | 0.89 m/s, 222° | - | - |
| 1778011357 | 20° C | 69% | 1007.6 hPa | 0 mm | 0.45 m/s, 209° | - | - |
| 1778011066 | 20° C | 69% | 1007.6 hPa | 0 mm | 0.89 m/s, 225° | - | - |
| 1778010754 | 20° C | 69% | 1007.7 hPa | 0 mm | 0.89 m/s, 217° | - | - |
| 1778010455 | 20° C | 69% | 1007.7 hPa | 0 mm | 0.89 m/s, 194° | - | - |
| 1778009854 | 20° C | 70% | 1008 hPa | 0 mm | 0.89 m/s, 191° | - | - |
| 1778009554 | 20.56° C | 70% | 1008.1 hPa | 0 mm | 0.89 m/s, 275° | - | - |
| 1778009254 | 20.56° C | 69% | 1008.2 hPa | 0 mm | 0.45 m/s, 217° | - | - |
| 1778009055 | 21.11° C | 67% | 1008.3 hPa | 0 mm | 0.45 m/s, 225° | - | - |
| 1778008953 | 21.11° C | 70% | 1008.2 hPa | 0 mm | 0.45 m/s, 196° | - | - |
| 1778008652 | 21.11° C | 67% | 1008.3 hPa | 0 mm | 0.45 m/s, 225° | - | - |
| 1778008510 | 21.11° C | 64% | 1008.3 hPa | 0 mm | 0.89 m/s, 255° | - | - |
| 1778008354 | 21.11° C | 64% | 1008.3 hPa | 0 mm | 0.89 m/s, 255° | - | - |
| 1778008054 | 21.11° C | 65% | 1008.4 hPa | 0 mm | 0.45 m/s, 227° | - | - |
| 1778007752 | 21.67° C | 66% | 1008.4 hPa | 0 mm | 1.79 m/s, 239° | - | - |
| 1778007451 | 21.67° C | 65% | 1008.5 hPa | 0 mm | 0.45 m/s, 217° | - | - |
| 1778007152 | 21.67° C | 66% | 1008.6 hPa | 0 mm | 0.45 m/s, 230° | - | - |
| 1778006851 | 21.67° C | 64% | 1008.6 hPa | 0 mm | 0.89 m/s, 213° | - | - |
| 1778006550 | 21.67° C | 65% | 1008.7 hPa | 0 mm | 0 m/s | - | - |
| 1778006250 | 21.67° C | 63% | 1008.7 hPa | 0 mm | 0 m/s | - | - |
| 1778005951 | 22.22° C | 63% | 1008.8 hPa | 0 mm | 0 m/s | - | - |
* Rain latest hour (hover to see other rain measurements)
** Current wind speed in m/s (hover to see current wind gust speed)